P/2024 X3 ( PanSTARRS )

Japanese version
Home page
Updated on December 28, 2024

---------------------------------------------------------------------

* Profile

Discovery Date December 8, 2024
Magnitude 21.0 mag
Discoverer Pan-STARRS 2 telescope (Haleakala)

* Orbital Elements

Epoch 2024 Oct. 17.0 TT = JDT 2460600.5                                         
T 2024 Sept. 5.78862 TT                                 Veres                   
q   2.6132454            (2000.0)            P               Q                  
n   0.05382068     Peri.  352.94700     -0.28089060     -0.95855854             
a   6.9476286      Node   113.35731     +0.88305721     -0.27755671             
e   0.6238651      Incl.    2.97222     +0.37591279     -0.06424796             
P  18.3                                                                         
From 39 observations 2024 Oct. 22-Dec. 26, mean residual 0".5.                  

* Magnitudes Graph

        m1 = 14.5 + 5 log d + 10.0 log r

---------------------------------------------------------------------

The orbital elements are published on M.P.E.C. 2024-Y145.
The magnitudes graphs are made with Comet for Windows.

---------------------------------------------------------------------

Copyright(C) Seiichi Yoshida (comet@aerith.net). All rights reserved.